Flag for Saudi Arabia Weather past 2 weeks in Qatif, Saudi Arabia

Now
88 °F

Passing clouds.


Feels Like: 84 °F
Forecast: 68 / 89 °F
Wind: 8 mph from East

Location: King Fahd International Airport

Current Time: Mar 29, 2015 at 1:43:26 PM

Latest Report: Mar 29, 2015 at 1:00 PM


Visibility: N/A

Pressure: 29.89 "Hg

Humidity: 12%

Dew point: 28 °F

Location of QatifLocation

Historic Weather in Qatif — Graph

°F

Qatif temperature yesterday

Maximum temperature yesterday: 82 °F (at 12:00 PM)
Minimum temperature yesterday: 63 °F (at 5:00 AM)
Average temperature yesterday: 72 °F

Past Weeks' High & Low Weather Summary

 TemperatureHumidityPressure
High91 °F (Mar 21, 2:00 PM)88% (Mar 17, 5:00 AM)30.12 "Hg (Mar 17, 5:00 AM)
Low55 °F (Mar 24, 6:00 AM)14% (Mar 29, 12:00 PM)29.80 "Hg (Mar 19, 12:00 AM)
Average72 °F60%29.95 "Hg
* Reported Mar 14 12:00 Noon — Mar 29 12:00 Noon, Qatif, Weather by CustomWeather, © 2015

Note: Actual official high and low records may vary slightly from our data, if they occured in-between our weather recording intervals... More about our weather records

Advertising

Qatif weather history for previous 24 hours

 ConditionsComfort  
Time TempWeatherWind HumidityBarometerVisibility
12:00 PM
Sun, Mar 29
86 °FPassing clouds.6 mph14%29.92 "HgN/A
11:00 AM82 °FPassing clouds.6 mph19%29.95 "HgN/A
10:00 AM79 °FSunny.7 mph23%29.95 "Hg10 mi
9:00 AM75 °FSunny.2 mph29%29.98 "Hg10 mi
8:00 AM72 °FSunny.No wind44%29.98 "Hg10 mi
7:00 AM63 °FClear.2 mph68%29.95 "Hg5 mi
6:00 AM61 °FClear.2 mph63%29.92 "Hg5 mi
5:00 AM61 °FClear.No wind63%29.92 "Hg10 mi
4:00 AM61 °FClear.2 mph68%29.92 "Hg10 mi
3:00 AM61 °FClear.No wind68%29.92 "Hg10 mi
2:00 AM61 °FClear.2 mph68%29.95 "Hg10 mi
1:00 AM63 °FClear.No wind59%29.95 "Hg10 mi
12:00 AM63 °FClear.No wind59%29.98 "Hg10 mi
11:00 PM
Sat, Mar 28
64 °FClear.No wind56%29.98 "Hg10 mi
10:00 PM66 °FClear.1 mph52%29.98 "Hg10 mi
9:00 PM68 °FClear.5 mph43%29.98 "Hg10 mi
8:00 PM70 °FClear.3 mph40%29.98 "Hg10 mi
7:00 PM73 °FClear.6 mph33%29.98 "Hg10 mi
6:00 PM77 °FClear.9 mph26%29.95 "Hg10 mi
5:00 PM79 °FSunny.15 mph21%29.95 "Hg10 mi
4:00 PM81 °FSunny.14 mph21%29.95 "Hg10 mi
3:00 PM81 °FSunny.13 mph21%29.95 "Hg10 mi
2:00 PM82 °FSunny.14 mph20%29.98 "Hg10 mi
1:00 PM82 °FSunny.16 mph19%29.98 "Hg10 mi
Weather by CustomWeather, © 2015

See weather overviewHow to use our weather pages